17:49
Airports
History
Links
Donate
Help keep this website running!
PayPal
Bitcoin
This page is community maintained. The information is intended for PC simulator navigation or reference.
Always use approved charts for navigation.
SDYJ
Jose Martins da Silva
Jose Martins da Silva (SDYJ)
Regente Feijó, São Paulo, Brazil (19570)
4
Lat/Lng:22° 13' 32" S / 51° 20' 53" W
-22.225556 / -51.348056
Elevation:1663'ft / 507mMSL
ID / ICAO:SDYJ
Runways:1
Longest:(08-26) 804.7m / 2,640ft Dirt
Distance To
Airport ID:
Nearby WeatherUpdated 08-21-17 17:00 GMT
Nearby weather at SBDN, Presidente Prudente located 6.0 nautical miles from SDYJ
Altimeter: 30.21
Visibility: 6.2 statute miles
Wind: 13 knots (130°)
Temp: 20°c 68°f
Humidity: 56.1%

METAR: SBDN 211700Z 13013KT 9999 SCT030 20/11 Q1023

(Powered by phpweather)
Runway 08 / 26
Dimensions:804.7 x 20.1m 2640' x 66'ft
Surface:Dirt
Runway 08 [A]Runway 26 [B]
Heading:059°TH 239°TH
Lat:
Lng:
22° 13' 38.55"S
51° 21' 5.24"W
22° 13' 25.45"S
51° 20' 40.76"W
User Notes and Comments
Google Map
Nearby Airports
(C) Presidente Prudente 6.0 NM
SBDN (WX) NW 305°
4 Estancia Machado 10.9 NM
SDEM NW 322°
4 Elisa Camargo de Arruda Botelho 18.2 NM
SIIG ESE 119°
(U) FAZENDA NOVA CALIFORNIA 19.1 NM
SDEG SSE 150°
4 Atena 21.0 NM
SDPC ENE 76°
4 Fazenda Nova Damasco 21.2 NM
SDND SSW 213°
4 Fazenda Nova Floresta 24.8 NM
SDQG NNE 24°
VFR Chart
Flight Planning at SkyVector.com